Latest Weather Observations for Rottnest Island

IDW60801

Issued at 4:32 pm WST Monday 3 August 2015 (issued every 30 minutes, with the page automatically refreshed every 10 minutes)

About weather observations | Map of weather stations | Latest weather observations for WA | Other Formats
Station Details ID: 009193 Name: ROTTNEST ISLAND Lat: -32.01 Lon: 115.50 Height: 43.1 m
Data from the previous 72 hours. | See also: Recent months at Rottnest Island
Date/Time
WST
Temp
°C
App
Temp
°C
Dew
Point
Rel
Hum
%
Delta-T
°C
Wind Press
QNH
hPa
Press
MSL
hPa
Rain
since 9 am
mm
Dir
 
Spd
km/h
Gust
km/h
Spd
kts
Gust
kts
03/04:30pm 15.1 11.1 8.3 64 3.4 SSE 19 22 10 12 1031.8 1031.8 0.0
03/04:00pm 15.3 11.3 8.1 62 3.6 S 19 24 10 13 1031.9 1031.9 0.0
03/03:30pm 15.5 12.1 7.5 59 4.0 S 15 19 8 10 1032.1 1032.1 0.0
03/03:00pm 15.5 11.9 6.8 56 4.2 SSE 15 20 8 11 1032.3 1032.2 0.0
03/02:30pm 15.7 11.7 6.7 55 4.4 SSE 17 22 9 12 1032.4 1032.3 0.0
03/02:00pm 15.8 12.4 7.8 59 4.0 S 15 19 8 10 1032.7 1032.6 0.0
03/01:30pm 15.3 11.9 7.6 60 3.8 SSE 15 20 8 11 1032.9 1032.8 0.0
03/01:00pm 15.1 11.5 6.7 57 4.1 SE 15 20 8 11 1033.0 1032.9 0.0
03/12:30pm 14.9 11.4 7.0 59 3.9 E 15 24 8 13 1033.6 1033.5 0.0
03/12:00pm 15.1 10.6 6.1 55 4.3 E 19 30 10 16 1034.1 1034.0 0.0
03/11:30am 14.5 10.3 5.6 55 4.2 E 17 24 9 13 1034.8 1034.7 0.0
03/11:00am 14.6 11.3 6.2 57 4.0 ENE 13 20 7 11 1035.0 1034.9 0.0
03/10:30am 13.7 10.2 5.6 58 3.8 NE 13 20 7 11 1035.2 1035.1 0.0
03/10:00am 13.8 10.1 6.2 60 3.6 ENE 15 20 8 11 1035.5 1035.4 0.0
03/09:30am 13.3 8.8 5.9 61 3.5 ENE 19 26 10 14 1035.4 1035.3 0.0
03/09:00am 13.0 9.0 6.6 65 3.0 E 17 24 9 13 1035.4 1035.3 0.0
03/08:30am 12.4 8.4 6.7 68 2.7 E 17 22 9 12 1035.0 1034.9 0.0
03/08:00am 11.7 7.7 6.6 71 2.4 E 17 26 9 14 1034.8 1034.7 0.0
03/07:30am 11.0 7.3 6.2 72 2.2 ESE 15 20 8 11 1034.5 1034.4 0.0
03/07:00am 11.0 7.2 6.0 71 2.3 ESE 15 20 8 11 1034.0 1033.9 0.0
03/06:30am 11.3 7.5 5.8 69 2.6 ESE 15 20 8 11 1033.8 1033.7 0.0
03/06:00am 11.5 7.3 5.6 67 2.7 ESE 17 22 9 12 1033.5 1033.4 0.0
03/05:30am 11.4 7.5 5.5 67 2.7 ESE 15 19 8 10 1033.6 1033.5 0.0
03/05:00am 11.6 7.7 5.5 66 2.8 ESE 15 20 8 11 1033.4 1033.3 0.0
03/04:30am 11.7 7.5 5.6 66 2.8 ESE 17 22 9 12 1033.5 1033.4 0.0
03/04:00am 11.7 7.5 5.6 66 2.8 E 17 22 9 12 1033.6 1033.5 0.0
03/03:30am 11.7 7.5 5.6 66 2.8 E 17 26 9 14 1033.6 1033.5 0.0
03/03:00am 11.8 7.2 5.4 65 2.9 E 19 24 10 13 1033.8 1033.7 0.0
03/02:30am 11.6 7.4 5.5 66 2.8 E 17 22 9 12 1034.1 1034.0 0.0
03/02:00am 11.4 7.2 5.5 67 2.7 E 17 20 9 11 1034.3 1034.2 0.0
03/01:30am 11.7 7.4 5.3 65 3.0 E 17 20 9 11 1034.3 1034.2 0.0
03/01:00am 12.0 7.4 5.4 64 3.0 E 19 24 10 13 1034.2 1034.1 0.0
03/12:30am 12.0 7.4 5.4 64 3.1 E 19 26 10 14 1034.0 1033.9 0.0
03/12:00am 12.4 7.6 5.6 63 3.1 E 20 30 11 16 1033.9 1033.8 0.0
 
Date/Time
WST
Temp
°C
App
Temp
°C
Dew
Point
Rel
Hum
%
Delta-T
°C
Wind Press
QNH
hPa
Press
MSL
hPa
Rain
since 9 am
mm
Dir
 
Spd
km/h
Gust
km/h
Spd
kts
Gust
kts
02/11:30pm 12.3 8.1 5.9 65 3.0 E 17 20 9 11 1034.0 1033.9 0.0
02/11:00pm 12.3 7.8 6.1 66 2.9 E 19 22 10 12 1033.8 1033.7 0.0
02/10:30pm 12.8 8.3 5.9 63 3.3 E 19 26 10 14 1033.9 1033.8 0.0
02/10:00pm 13.0 8.3 5.9 62 3.3 E 20 28 11 15 1034.0 1033.9 0.0
02/09:30pm 13.1 8.3 5.8 61 3.4 E 20 28 11 15 1034.1 1034.0 0.0
02/09:00pm 13.2 8.6 5.6 60 3.5 E 19 26 10 14 1034.1 1034.0 0.0
02/08:30pm 13.1 8.5 5.8 61 3.4 E 19 26 10 14 1033.9 1033.8 0.0
02/08:00pm 13.8 8.6 5.4 57 3.9 E 22 30 12 16 1033.7 1033.6 0.0
02/07:30pm 13.8 9.9 5.4 57 4.0 E 15 22 8 12 1033.4 1033.3 0.0
02/07:00pm 13.8 9.8 4.9 55 4.1 E 15 20 8 11 1033.4 1033.3 0.0
02/06:30pm 14.4 10.8 5.2 54 4.3 ESE 13 17 7 9 1033.3 1033.2 0.0
02/06:00pm 14.4 11.2 5.2 54 4.3 ESE 11 15 6 8 1032.9 1032.8 0.0
02/05:30pm 14.1 10.0 6.2 59 3.8 SSE 17 20 9 11 1032.6 1032.5 0.0
02/05:00pm 14.5 10.0 6.3 58 3.9 SSE 19 22 10 12 1032.0 1032.0 0.0
02/04:30pm 14.8 10.2 6.4 57 4.1 S 20 24 11 13 1031.9 1031.9 0.0
02/04:00pm 15.0 10.8 5.8 54 4.4 SSE 17 22 9 12 1031.8 1031.8 0.0
02/03:30pm 15.0 10.9 6.0 55 4.3 SSE 17 22 9 12 1031.6 1031.6 0.0
02/03:00pm 15.2 11.3 5.4 52 4.6 SE 15 22 8 12 1031.6 1031.6 0.0
02/02:30pm 14.6 10.2 4.6 51 4.7 SE 17 22 9 12 1031.6 1031.6 0.0
02/02:00pm 14.5 9.8 5.3 54 4.3 SSE 19 24 10 13 1031.7 1031.7 0.0
02/01:30pm 13.8 9.9 3.6 50 4.6 E 13 20 7 11 1032.0 1032.0 0.0
02/01:00pm 13.8 9.3 4.4 53 4.3 SE 17 24 9 13 1032.4 1032.3 0.0
02/12:30pm 13.2 8.7 4.4 55 4.0 ESE 17 26 9 14 1033.0 1032.9 0.0
02/12:00pm 13.0 8.1 4.2 55 4.0 SE 19 26 10 14 1033.6 1033.5 0.0
02/11:30am 12.7 7.5 3.6 54 4.1 ESE 20 26 11 14 1034.1 1034.0 0.0
02/11:00am 12.7 7.7 3.4 53 4.1 ESE 19 24 10 13 1034.2 1034.1 0.0
02/10:30am 12.8 7.9 4.0 55 4.0 ESE 19 30 10 16 1034.3 1034.2 0.0
02/10:00am 12.3 7.2 3.3 54 4.0 E 19 30 10 16 1034.4 1034.3 0.0
02/09:30am 12.2 6.9 3.2 54 4.0 ESE 20 28 11 15 1034.2 1034.1 0.0
02/09:00am 12.2 6.6 3.2 54 3.9 E 22 32 12 17 1033.8 1033.7 0.0
02/08:30am 11.5 6.4 3.3 57 3.6 ESE 19 26 10 14 1033.6 1033.5 0.0
02/08:00am 11.4 6.3 3.9 60 3.3 ESE 20 32 11 17 1033.3 1033.2 0.0
02/07:30am 11.3 6.4 4.1 61 3.2 ESE 19 24 10 13 1033.0 1032.9 0.0
02/07:00am 11.4 6.7 3.4 58 3.5 E 17 26 9 14 1032.6 1032.5 0.0
02/06:30am 11.5 6.8 3.0 56 3.7 E 17 24 9 13 1032.3 1032.2 0.0
02/06:00am 11.3 6.6 3.1 57 3.6 ESE 17 24 9 13 1031.8 1031.8 0.0
02/05:30am 11.7 6.4 3.2 56 3.7 ESE 20 30 11 16 1031.5 1031.5 0.0
02/05:00am 11.8 6.4 2.3 52 4.1 E 20 30 11 16 1031.4 1031.4 0.0
02/04:30am 12.0 6.3 2.7 53 4.1 SE 22 33 12 18 1031.1 1031.1 0.0
02/04:00am 12.0 6.6 2.5 52 4.1 ESE 20 35 11 19 1030.8 1030.8 0.0
02/03:30am 12.2 6.9 2.9 53 4.1 SE 20 32 11 17 1030.9 1030.9 0.0
02/03:00am 12.2 7.5 2.9 53 4.0 ESE 17 24 9 13 1030.8 1030.8 0.0
02/02:30am 12.5 7.2 3.2 53 4.1 ESE 20 32 11 17 1030.7 1030.7 0.0
02/02:00am 12.4 7.4 3.4 54 4.0 ESE 19 28 10 15 1030.9 1030.9 0.0
02/01:30am 12.3 7.3 3.5 55 3.9 ESE 19 26 10 14 1030.7 1030.7 0.0
02/01:00am 12.3 7.1 3.3 54 4.0 ESE 20 32 11 17 1030.7 1030.7 0.0
02/12:30am 12.7 7.5 3.4 53 4.1 ESE 20 30 11 16 1030.6 1030.6 0.0
02/12:00am 12.8 7.2 3.5 53 4.1 ESE 22 32 12 17 1030.5 1030.5 0.0
 
Date/Time
WST
Temp
°C
App
Temp
°C
Dew
Point
Rel
Hum
%
Delta-T
°C
Wind Press
QNH
hPa
Press
MSL
hPa
Rain
since 9 am
mm
Dir
 
Spd
km/h
Gust
km/h
Spd
kts
Gust
kts
01/11:30pm 13.0 7.1 3.9 54 4.1 SE 24 35 13 19 1030.3 1030.3 0.0
01/11:00pm 13.1 7.1 3.5 52 4.3 ESE 24 35 13 19 1030.2 1030.2 0.0
01/10:30pm 13.1 8.0 4.3 55 4.0 SE 20 33 11 18 1030.1 1030.1 0.0
01/10:00pm 13.1 7.9 3.7 53 4.2 ESE 20 32 11 17 1029.9 1029.9 0.0
01/09:30pm 13.3 7.7 3.4 51 4.4 ESE 22 33 12 18 1029.8 1029.8 0.0
01/09:00pm 13.3 7.7 3.4 51 4.4 ESE 22 39 12 21 1029.6 1029.6 0.0
01/08:30pm 13.2 6.8 3.3 51 4.4 ESE 26 35 14 19 1029.1 1029.1 0.0
01/08:00pm 13.4 7.5 4.0 53 4.2 ESE 24 35 13 19 1028.7 1028.7 0.0
01/07:30pm 13.6 8.5 4.2 53 4.3 ESE 20 30 11 16 1028.3 1028.3 0.0
01/07:00pm 13.8 7.9 4.1 52 4.4 ESE 24 33 13 18 1027.9 1027.9 0.0
01/06:30pm 13.8 7.9 3.9 51 4.5 SE 24 35 13 19 1027.3 1027.3 0.0
01/06:00pm 14.4 8.1 5.5 55 4.2 SE 28 43 15 23 1026.8 1026.8 0.0
01/05:30pm 14.8 7.3 6.1 56 4.2 SE 35 46 19 25 1026.2 1026.2 0.0
01/05:00pm 15.2 8.1 5.4 52 4.6 SE 32 43 17 23 1026.0 1026.0 0.0
01/04:30pm 15.3 7.8 6.3 55 4.4 SSE 35 46 19 25 1025.5 1025.5 0.0
01/04:00pm 15.5 8.0 6.5 55 4.4 SSE 35 43 19 23 1025.1 1025.1 0.0
01/03:30pm 15.5 8.4 6.5 55 4.4 SSE 33 44 18 24 1024.7 1024.7 0.0
01/03:00pm 15.6 8.7 7.1 57 4.2 SSE 33 43 18 23 1024.2 1024.2 0.0
01/02:30pm 16.0 9.1 7.2 56 4.4 SSE 33 41 18 22 1024.0 1024.0 0.0
01/02:00pm 16.7 10.6 8.1 57 4.3 SSE 30 43 16 23 1023.9 1023.9 0.0
01/01:30pm 16.2 9.6 7.7 57 4.3 SSE 32 39 17 21 1024.0 1024.0 0.0
01/01:00pm 15.7 8.5 7.5 58 4.1 SSE 35 43 19 23 1023.9 1023.9 0.0
01/12:30pm 15.5 8.8 7.3 58 4.1 SSE 32 41 17 22 1024.3 1024.3 0.0
01/12:00pm 15.2 8.6 6.2 55 4.3 SSE 30 43 16 23 1024.2 1024.2 0.0
01/11:30am 15.2 8.5 7.2 59 3.9 SE 32 43 17 23 1024.4 1024.4 0.0
01/11:00am 14.5 7.1 6.8 60 3.7 SE 35 44 19 24 1024.3 1024.3 0.0
01/10:30am 14.2 7.3 7.3 63 3.4 SE 33 44 18 24 1024.4 1024.4 0.0
01/10:00am 13.7 5.6 7.0 64 3.2 SE 39 50 21 27 1024.0 1024.0 0.0
01/09:30am 13.4 6.1 7.2 66 3.0 SE 35 44 19 24 1023.8 1023.8 0.0
01/09:00am 13.2 4.8 7.4 68 2.8 SE 41 50 22 27 1023.2 1023.2 0.0
01/08:41am 13.2 5.2 7.6 69 2.7 SE 39 59 21 32 1022.7 1022.7 0.0
01/08:30am 12.9 4.1 7.4 69 2.7 SE 43 56 23 30 1022.7 1022.7 0.0
01/08:00am 13.0 3.7 7.5 69 2.7 SE 46 61 25 33 1021.5 1021.5 0.0
01/07:30am 13.0 4.3 7.7 70 2.6 SE 43 57 23 31 1020.8 1020.8 0.0
01/07:00am 13.0 5.4 7.7 70 2.6 SE 37 50 20 27 1020.7 1020.7 0.0
01/06:30am 12.7 4.7 7.4 70 2.6 SE 39 50 21 27 1019.8 1019.8 0.0
01/06:00am 12.9 4.6 7.8 71 2.5 SE 41 52 22 28 1019.3 1019.3 0.0
01/05:30am 13.1 5.1 7.5 69 2.7 SE 39 52 21 28 1019.0 1019.0 0.0
01/05:00am 13.4 5.4 7.4 67 2.9 SE 39 50 21 27 1018.4 1018.4 0.0
01/04:30am 13.5 5.5 7.3 66 3.0 SE 39 52 21 28 1017.9 1017.9 0.0
01/04:09am 13.5 4.7 7.1 65 3.1 SE 43 61 23 33 1017.5 1017.5 0.0
01/04:00am 13.4 4.6 7.4 67 2.9 SE 43 52 23 28 1017.7 1017.7 0.0
01/03:30am 13.3 4.9 7.5 68 2.8 SE 41 57 22 31 1017.6 1017.6 0.0
01/03:00am 13.1 6.4 8.0 71 2.5 SE 33 52 18 28 1017.4 1017.4 0.0
01/02:30am 13.0 5.9 8.1 72 2.4 SE 35 54 19 29 1016.9 1016.9 0.0
01/02:00am 13.1 6.0 8.0 71 2.5 SE 35 57 19 31 1016.9 1016.9 0.0
01/01:36am 13.5 5.8 8.8 73 2.4 SE 39 57 21 31 1016.5 1016.5 0.0
01/01:30am 13.5 5.1 8.8 73 2.4 SE 43 56 23 30 1016.5 1016.5 0.0
01/01:00am 13.5 5.3 8.4 71 2.5 SE 41 61 22 33 1016.2 1016.1 0.0
01/12:31am 13.9 5.9 9.1 73 2.4 SE 41 59 22 32 1015.7 1015.6 0.0
01/12:30am 13.8 5.9 9.3 74 2.3 SE 41 56 22 30 1015.8 1015.7 0.0
01/12:13am 13.7 5.9 9.7 77 2.1 SE 41 59 22 32 1015.5 1015.4 0.0
01/12:00am 13.9 5.2 10.1 78 2.0 SE 46 61 25 33 1015.2 1015.1 0.0
 
Date/Time
WST
Temp
°C
App
Temp
°C
Dew
Point
Rel
Hum
%
Delta-T
°C
Wind Press
QNH
hPa
Press
MSL
hPa
Rain
since 9 am
mm
Dir
 
Spd
km/h
Gust
km/h
Spd
kts
Gust
kts
31/11:30pm 14.3 6.2 9.9 75 2.3 SE 43 57 23 31 1014.7 1014.6 0.0
31/11:00pm 14.4 8.1 9.8 74 2.4 SE 33 54 18 29 1014.6 1014.5 0.0
31/10:33pm 14.9 7.7 10.5 75 2.3 SE 39 57 21 31 1014.2 1014.1 0.0
31/10:30pm 15.0 7.3 10.2 73 2.5 SE 41 57 22 31 1013.9 1013.8 0.0
31/10:00pm 15.5 7.8 11.5 77 2.2 SE 43 54 23 29 1013.6 1013.5 0.0
31/09:30pm 15.9 8.0 11.5 75 2.4 SE 44 56 24 30 1013.2 1013.1 0.0
31/09:00pm 16.3 10.4 12.5 78 2.1 SE 35 44 19 24 1013.1 1013.0 0.0
31/08:30pm 16.8 11.5 13.1 79 2.1 SSE 33 39 18 21 1012.9 1012.8 0.0
31/08:00pm 17.5 13.9 12.0 70 3.0 SSW 22 30 12 16 1012.9 1012.8 0.0
31/07:30pm 17.2 13.7 10.8 66 3.4 S 20 28 11 15 1012.7 1012.6 0.0
31/07:00pm 17.6 13.7 10.7 64 3.7 SSW 22 30 12 16 1012.5 1012.4 0.0
31/06:30pm 17.6 14.0 9.8 60 4.1 SSW 19 22 10 12 1012.1 1012.0 0.0
31/06:00pm 17.5 13.9 10.4 63 3.8 SSW 20 24 11 13 1011.3 1011.2 0.0
31/05:30pm 17.6 14.4 10.0 61 4.0 SSW 17 20 9 11 1010.9 1010.8 0.0
31/05:00pm 17.7 14.0 9.3 58 4.4 SSW 19 20 10 11 1011.0 1010.9 0.0

Other Formats:

Comma delimited format used in spreadsheet applications
http://www.bom.gov.au/fwo/IDW60801/IDW60801.94602.axf

JavaScript Object Notation format (JSON) in row-major order
http://www.bom.gov.au/fwo/IDW60801/IDW60801.94602.json